FW93366 Weather Reports


time (UTC)temp
C
wind
direction
speed
KPH
gust
KPH
rain 1hr
cm
rain 24hr
cm
rain mn
cm
humidity
%
barometer
mb
20260509220052 25 252 4.8 19.3 0.00 0.00 0.00 23 1018.8
20260509214546 25 272 8.0 17.7 0.00 0.00 0.00 27 1019.1
20260509213044 25 237 9.7 20.9 0.00 0.00 0.00 24 1019.2
20260509211546 24 190 8.0 16.1 0.00 0.00 0.00 25 1019.3
20260509210041 24 291 4.8 12.9 0.00 0.00 0.00 23 1019.3
20260509204552 23 261 6.4 20.9 0.00 0.00 0.00 27 1019.5
20260509203043 23 251 6.4 16.1 0.00 0.00 0.00 28 1019.7
20260509201544 23 192 3.2 16.1 0.00 0.00 0.00 28 1019.7
20260509200044 23 189 4.8 12.9 0.00 0.00 0.00 29 1019.8
20260509194539 22 302 4.8 14.5 0.00 0.00 0.00 30 1020.2
20260509193047 22 207 4.8 17.7 0.00 0.00 0.00 29 1020.5
20260509191546 22 337 4.8 8.0 0.00 0.00 0.00 27 1020.6
20260509190053 22 313 3.2 14.5 0.00 0.00 0.00 29 1020.8
20260509184558 21 309 4.8 19.3 0.00 0.00 0.00 31 1021.0
20260509183040 21 0 0.0 8.0 0.00 0.00 0.00 30 1021.1
20260509181545 21 226 1.6 14.5 0.00 0.00 0.00 31 1021.3
20260509180046 21 337 3.2 8.0 0.00 0.00 0.00 33 1021.4
20260509174546 20 0 3.2 9.7 0.00 0.00 0.00 34 1021.6
20260509173039 19 35 3.2 9.7 0.00 0.00 0.00 40 1021.6
20260509171538 18 10 1.6 9.7 0.00 0.00 0.00 42 1021.6
20260509170053 18 229 1.6 6.4 0.00 0.00 0.00 49 1021.8
20260509164546 17 0 3.2 6.4 0.00 0.00 0.00 47 1021.7
20260509163054 17 0 0.0 3.2 0.00 0.00 0.00 48 1021.8
20260509161541 16 0 0.0 4.8 0.00 0.00 0.00 50 1021.8
20260509160039 15 0 1.6 6.4 0.00 0.00 0.00 56 1021.9
20260509154544 13 104 0.0 4.8 0.00 0.00 0.00 59 1021.8
20260509153045 12 0 0.0 4.8 0.00 0.00 0.00 65 1021.9
20260509151550 11 0 0.0 6.4 0.00 0.00 0.00 68 1021.9
20260509150040 11 0 0.0 0.0 0.00 0.00 0.00 68 1022.0
20260509144540 9 0 0.0 0.0 0.00 0.00 0.00 71 1022.0
20260509143051 8 0 0.0 0.0 0.00 0.00 0.00 73 1021.8
20260509141558 8 0 0.0 0.0 0.00 0.00 0.00 71 1021.7
20260509140057 7 0 0.0 0.0 0.00 0.00 0.00 71 1021.7
20260509134543 6 0 0.0 0.0 0.00 0.00 0.00 77 1021.6
20260509133047 6 0 0.0 0.0 0.00 0.00 0.00 76 1021.4
20260509131544 5 0 0.0 0.0 0.00 0.00 0.00 79 1021.3
20260509130048 5 0 0.0 0.0 0.00 0.00 0.00 78 1021.2
20260509124548 6 0 0.0 0.0 0.00 0.00 0.00 78 1021.0
20260509123052 6 0 0.0 0.0 0.00 0.00 0.00 79 1021.0
20260509121543 6 0 0.0 1.6 0.00 0.00 0.00 77 1020.9
20260509120048 7 0 0.0 3.2 0.00 0.00 0.00 73 1020.8
20260509114544 7 0 1.6 3.2 0.00 0.00 0.00 75 1020.7
20260509113103 6 0 0.0 1.6 0.00 0.00 0.00 76 1020.7
20260509111547 7 0 0.0 0.0 0.00 0.00 0.00 74 1020.7
20260509110041 7 0 0.0 0.0 0.00 0.00 0.00 72 1020.6
20260509104555 7 0 0.0 1.6 0.00 0.00 0.00 71 1020.6
20260509103056 8 0 0.0 4.8 0.00 0.00 0.00 71 1020.5
20260509101546 8 0 0.0 0.0 0.00 0.00 0.00 70 1020.5
20260509100059 8 0 0.0 0.0 0.00 0.00 0.00 66 1020.4
20260509094548 8 173 0.0 3.2 0.00 0.00 0.00 68 1020.4
20260509093043 9 0 0.0 0.0 0.00 0.00 0.00 66 1020.4
20260509091543 9 0 0.0 3.2 0.00 0.00 0.00 63 1020.4
20260509090039 10 0 0.0 0.0 0.00 0.00 0.00 58 1020.3
20260509084545 11 0 0.0 4.8 0.00 0.00 0.00 57 1020.3
20260509083043 11 0 0.0 4.8 0.00 0.00 0.00 54 1020.2
20260509081543 11 0 0.0 3.2 0.00 0.00 0.00 51 1020.3
20260509080046 11 0 0.0 1.6 0.00 0.00 0.00 55 1020.2
20260509074545 11 346 1.6 8.0 0.00 0.00 0.00 57 1020.4
20260509073047 11 333 0.0 6.4 0.00 0.00 0.00 57 1020.3
20260509071546 12 0 0.0 3.2 0.00 0.00 0.00 52 1020.1
20260509070040 12 86 3.2 9.7 0.00 0.00 0.00 50 1019.9
20260509064542 12 79 1.6 3.2 0.00 0.00 0.00 53 1020.0
20260509063043 12 0 0.0 6.4 0.00 0.00 0.00 55 1020.0
20260509061556 12 0 0.0 3.2 0.00 0.00 0.00 55 1020.0
20260509060041 12 0 0.0 0.0 0.00 0.00 0.00 57 1019.9
20260509054550 13 0 0.0 4.8 0.00 0.00 0.00 54 1019.8
20260509053056 13 0 0.0 4.8 0.00 0.00 0.00 54 1019.8
20260509051550 13 211 3.2 6.4 0.00 0.00 0.00 52 1019.7
20260509050050 13 0 0.0 4.8 0.00 0.00 0.00 52 1019.5
20260509044547 14 0 0.0 0.0 0.00 0.00 0.00 51 1019.5
20260509043039 15 198 1.6 4.8 0.00 0.00 0.00 48 1019.2
20260509041539 16 0 0.0 4.8 0.00 0.00 0.00 46 1019.2
20260509040048 18 235 3.2 12.9 0.00 0.00 0.00 35 1018.9
20260509034550 19 281 4.8 16.1 0.00 0.00 0.00 33 1018.8
20260509033041 20 271 4.8 12.9 0.00 0.00 0.00 32 1018.6
20260509031541 20 299 4.8 14.5 0.00 0.00 0.00 31 1018.5
20260509030046 21 327 8.0 16.1 0.00 0.00 0.00 29 1018.3
20260509024545 21 329 1.6 12.9 0.00 0.00 0.00 29 1018.3
20260509023043 22 0 1.6 16.1 0.00 0.00 0.00 27 1018.2
20260509021541 23 254 3.2 19.3 0.00 0.00 0.00 27 1018.1
20260509020040 23 323 4.8 17.7 0.00 0.00 0.00 26 1018.0
20260509014538 23 263 4.8 19.3 0.00 0.00 0.00 25 1018.0
20260509013046 23 285 9.7 20.9 0.00 0.00 0.00 25 1017.8
20260509011541 24 305 8.0 24.1 0.00 0.00 0.00 23 1017.8
20260509010047 24 268 9.7 25.7 0.00 0.00 0.00 21 1017.9
20260509004541 25 267 8.0 27.4 0.00 0.00 0.00 20 1017.9
20260509003041 25 276 8.0 24.1 0.00 0.00 0.00 20 1017.9
20260509001545 25 278 9.7 22.5 0.00 0.00 0.00 19 1018.0
20260509000044 25 296 12.9 25.7 0.00 0.00 0.00 19 1017.9
20260508234545 25 295 12.9 27.4 0.00 0.00 0.00 19 1018.0
20260508233040 25 254 11.3 25.7 0.00 0.00 0.00 19 1018.0
20260508231621 25 13 9.7 24.1 0.00 0.00 0.00 19 1018.2
20260508230056 25 319 11.3 32.2 0.00 0.00 0.00 20 1018.5
20260508224544 25 229 12.9 29.0 0.00 0.00 0.00 19 1018.5
20260508223044 25 265 6.4 27.4 0.00 0.00 0.00 21 1018.6
20260508221543 25 248 9.7 27.4 0.00 0.00 0.00 22 1018.6